Meteo Giornale » Osservazioni meteo Ungheria » Papa

ore: 03:45 - Osservazioni Meteo Papa
Lat. 47° 12' N Lon. 17° 30' E Alt. 145 metri s.l.m.

sereno Europe/Budapest

13 °C

Sereno

Temp. 24 Ore

13 °C

25 °C

Nord

3.7 Km/h

Dew point 13 °C

Umidità 100 %

Visibilità  10 Km

Il sole sorge alle ore 04:58

Il sole tramonta alle ore 20:50

Data e Ora Cielo e Fenomeni T °C DP °C Um. % Pres. hPa Vis. km Vento km/h
Oggi h: 03:45 sereno Sereno 13 13 100 1018 10 N 3.7
Oggi h: 03:15 sereno Sereno 13 13 100 1018 10 N 3.7
Oggi h: 02:45 sereno Sereno 14 13 93 1018 10 N 0
Oggi h: 02:15 sereno Sereno 14 12 87 1018 10 N 0
Oggi h: 01:45 sereno Sereno 15 12 82 1018 10 N/NO 7.4
Oggi h: 01:15 sereno Sereno 15 12 82 1017 10 N/NO 11.1
Oggi h: 00:45 sereno Sereno 16 12 77 1017 10 NO 14.8
Oggi h: 00:15 sereno Sereno 16 12 77 1017 10 NO 7.4
Ieri h: 23:45 sereno Sereno 17 13 77 1017 10 N 0
Ieri h: 23:15 sereno Sereno 16 13 82 1017 10 NO 7.4
Ieri h: 22:45 sereno Sereno 17 13 77 1017 10 N/NO 7.4
Ieri h: 22:15 sereno Sereno 17 13 77 1017 10 NO 11.1
Ieri h: 21:45 sereno Sereno 19 13 68 1016 10 N/NO 7.4
Ieri h: 21:15 sereno Sereno 20 13 64 1016 10 N 3.7
Ieri h: 20:45 sereno Sereno 21 13 60 1016 10 N 3.7
Ieri h: 20:15 molto_nuvoloso Molto Nuvoloso 22 13 56 1015 10 NO 7.4
Ieri h: 19:45 molto_nuvoloso Molto Nuvoloso 23 13 53 1015 10 N 11.1
Ieri h: 19:15 molto_nuvoloso Molto Nuvoloso 23 13 53 1015 10 N 11.1
Ieri h: 18:45 molto_nuvoloso Molto Nuvoloso 23 12 49 1015 10 N/NO 14.8
Ieri h: 18:15 molto_nuvoloso Molto Nuvoloso 23 11 46 1015 10 N/NO 25.9
Ieri h: 17:45 molto_nuvoloso Molto Nuvoloso 25 12 44 1014 10 N/NO 22.2
Ieri h: 17:15 molto_nuvoloso Molto Nuvoloso 24 14 53 1014 10 N/NO 18.5
Ieri h: 16:45 molto_nuvoloso Molto Nuvoloso 23 15 60 1015 10 N/NO 11.1
Ieri h: 16:15 nuvoloso Nuvoloso 22 16 68 1015 10 N/NO 14.8
Ieri h: 15:45 molto_nuvoloso Molto Nuvoloso 22 16 68 1015 10 N 11.1
Ieri h: 15:15 molto_nuvoloso Molto Nuvoloso 21 16 73 1015 10 N/NO 14.8
Ieri h: 14:45 molto_nuvoloso Molto Nuvoloso 21 15 68 1015 10 N 14.8
Ieri h: 14:15 molto_nuvoloso Molto Nuvoloso 20 15 72 1016 10 N 18.5
Ieri h: 13:45 molto_nuvoloso Molto Nuvoloso 20 14 68 1016 10 N/NO 29.6
Ieri h: 13:15 molto_nuvoloso Molto Nuvoloso 22 14 60 1016 10 N/NO 29.6
Ieri h: 12:45 molto_nuvoloso Molto Nuvoloso 22 14 60 1016 10 N/NO 25.9
Ieri h: 12:15 molto_nuvoloso Molto Nuvoloso 22 15 64 1015 10 N 22.2
Ieri h: 11:45 molto_nuvoloso Molto Nuvoloso 21 14 64 1015 10 N 35.2
Ieri h: 11:15 molto_nuvoloso Molto Nuvoloso 21 15 68 1015 10 N 25.9
Ieri h: 10:45 molto_nuvoloso Molto Nuvoloso 21 14 64 1015 10 N/NO 29.6
Ieri h: 10:15 molto_nuvoloso Molto Nuvoloso 21 14 64 1015 10 N/NO 29.6
Ieri h: 09:45 molto_nuvoloso Molto Nuvoloso 21 14 64 1015 10 N/NO 31.5
Ieri h: 09:15 molto_nuvoloso Molto Nuvoloso 20 14 68 1014 10 N 31.5
Ieri h: 09:14 molto_nuvoloso Molto Nuvoloso 20 14 68 1014 10 N 31.5
Ieri h: 08:45 molto_nuvoloso Molto Nuvoloso 20 15 72 1014 10 N/NO 25.9
Ieri h: 08:15 molto_nuvoloso Molto Nuvoloso 20 15 72 1014 10 N/NO 25.9
Ieri h: 07:45 molto_nuvoloso Molto Nuvoloso 20 14 68 1014 10 N/NO 29.6
Ieri h: 07:15 molto_nuvoloso Molto Nuvoloso 20 16 77 1014 10 N/NO 18.5
Ieri h: 06:45 sereno Sereno 20 16 77 1013 10 N 11.1
Ieri h: 06:15 sereno Sereno 20 17 82 1013 10 N 7.4
Ieri h: 05:45 sereno Sereno 19 17 88 1012 10 N 3.7
Ieri h: 05:15 sereno Sereno 19 18 93 1012 10 N/NE 7.4
Ieri h: 04:45 sereno Sereno 18 18 100 1012 10 N 0